Simultaneous Nadir Overpasses (SNOs) Predictions

Prediction of SNOs between NOAA-19 and TERRA Satellite Orbit:

Table of predicted SNOs for the next 14.0 days since TLE Epoch: 10/6/2014
Index Date (NOAA-19) Time (NOAA-19) Lat,Lon (NOAA-19) SZA (NOAA-19 ) Date (TERRA) Time (TERRA) Lat,Lon (TERRA) SZA (TERRA ) Distance(km) Time Diff (sec)
1 10/07/2014 09:30:50 71.07, 39.28 76.58 10/07/2014 09:32:01 71.10, 39.32 76.61 2.95 71
2 10/07/2014 10:21:43 -70.97,-153.27 103.51 10/07/2014 10:21:31 -70.98,-153.23 103.50 2.08 12
3 10/09/2014 15:05:28 -71.02, 135.73 102.61 10/09/2014 15:05:48 -71.04, 135.79 102.59 2.75 20
4 10/09/2014 15:56:30 70.70, -56.49 77.10 10/09/2014 15:55:18 70.78, -56.98 77.15 19.97 72
5 10/11/2014 19:49:13 -71.09, 64.72 101.72 10/11/2014 19:50:05 -71.08, 64.77 101.72 2.19 52
6 10/11/2014 20:40:18 70.92,-127.78 78.14 10/11/2014 20:39:33 70.92,-127.84 78.13 2.36 45
7 10/14/2014 00:33:06 -71.57, -7.06 100.43 10/14/2014 00:34:16 -71.41, -5.77 100.55 48.74 70
8 10/14/2014 01:24:03 71.01, 161.17 79.05 10/14/2014 01:23:49 70.98, 161.18 79.02 3.44 14
9 10/14/2014 02:14:40 -70.06, -29.99 101.83 10/14/2014 02:13:33 -70.11, -32.48 101.88 94.51 67
10 10/16/2014 06:07:46 71.05, 90.19 79.91 10/16/2014 06:08:03 71.07, 90.26 79.93 3.06 17
11 10/16/2014 06:58:39 -70.92,-102.31 100.21 10/16/2014 06:57:34 -70.91,-102.35 100.22 1.76 65
12 10/18/2014 10:51:30 71.11, 19.18 80.78 10/18/2014 10:52:19 71.09, 19.21 80.75 3.34 49
13 10/18/2014 11:42:23 -70.96,-173.28
